User: anonymous   Login
Location: Dalton
(34.7700°N, 84.9700°W)
Time: 10:48:26
(UTC-04:00)
Language:

Tiangong 2 - Orbit

View from above orbital plane
View from above orbital plane
View from above satellite
View from above satellite

Ground track
Ground track

The orbit data is extracted from the following two-line orbital elements,

1 41765U 16057A   18197.20565255  .00002691  00000-0  38277-4 0  9997
2 41765  42.7830 167.7784 0005711 103.7979  22.9748 15.59041930104553
Epoch (UTC): 16 July 2018 04:56:08
Eccentricity: 0.0005711
inclination: 42.7830°
perigee height: 386 km
apogee height: 394 km
right ascension of ascending node: 167.7784°
argument of perigee: 103.7979°
revolutions per day: 15.59041930
mean anomaly at epoch: 22.9748°
orbit number at epoch: 10455

The dashed part of the orbit path shows where the satellite is in the earth's shadow,  

DLR